Regional Weather Roundup
Issued by NWS

Home | Current Version | Previous Version | Text Only | Print | Product List | Glossary On
Versions: 1 2 3 4 5 6 7 8 9 10 11 12 13 14 15 16 17 18 19 20 21 22 23 24 25 26 27 28 29 30 31 32 33 34 35 36 37 38 39 40 41 42 43 44 45 46 47 48 49 50
000
ASUS43 KBIS 201910
RWRND

NORTH DAKOTA REGIONAL WEATHER ROUNDUP
NATIONAL WEATHER SERVICE BISMARCK ND
100 PM CST SAT JAN 20 2018

NOTE: "FAIR" INDICATES FEW OR NO CLOUDS BELOW 12,000 FEET WITH NO
SIGNIFICANT WEATHER AND/OR OBSTRUCTIONS TO VISIBILITY.


NDZ001>003-009>011-017-202000-
NORTHWEST NORTH DAKOTA

CITY           SKY/WX    TMP DP  RH WIND       PRES   REMARKS
WILLISTON      SUNNY     31  21  66 W9        29.85F
MINOT          SUNNY     36  24  62 W12       29.79S
MINOT AFB      SUNNY     35  24  65 W15       29.78S
$$

NDZ018>021-031>035-040>046-202000-
SOUTHWEST NORTH DAKOTA

CITY           SKY/WX    TMP DP  RH WIND       PRES   REMARKS
BISMARCK       SUNNY     40  27  59 W12       29.87F
DICKINSON      MOSUNNY   36  24  62 W16       29.84F
GARRISON         N/A     37  24  59 W15       29.82F
HETTINGER ARPT SUNNY     38  27  64 W15       29.89F
$$

NDZ004>008-012>016-024-026-027-054-202000-
NORTHEAST NORTH DAKOTA

CITY           SKY/WX    TMP DP  RH WIND       PRES   REMARKS
GRAND FORKS    FAIR      35  28  75 W7        29.81F
GRND FRKS AFB  FAIR      36  26  68 W7        29.80F
DEVILS LAKE    FAIR      34  27  75 W18       29.79F
$$

NDZ022-023-025-028>030-036>039-047>053-202000-
SOUTHEAST NORTH DAKOTA

CITY           SKY/WX    TMP DP  RH WIND       PRES   REMARKS
FARGO          FAIR      36  31  82 SW8       29.83F
JAMESTOWN      MOSUNNY   38  30  73 W5        29.82F
$$





USA.gov is the U.S. government's official web portal to all federal, state and local government web resources and services.